SCP
0 0 0 0 0 0 0 0 0 0 0 0 0 0 0 0 0 0 0 0 0 0 0 0 0 0 0 0 0 0 0 0 0 0 0 0 0 0 0 0 0 0 0 0
0 0 0 0 0 0 0 0 0 0 0 0 0 0 0 0 0 0 0 0 0 0 0 0 0 0 0 0 0 0 0 0 0 0 0 0 0 0 0 0 0 0 0 0
0 0 0 0 0 0 0 0 0 0 0 0 0 0 0 0 0 0 0 0 0 0 0 0 0 0 0 0 0 0 0 0 0 0 0 0 0 0 0 0 0 0 0 0
0 0 0 0 0 0 0 0 0 0 0 0 0 0 0 0 0 0 0 0 0 0 0 0 0 0 0 0 0 0 0 0 0 0 0 0 0 0 0 0 0 0 0 0
0 0 0 0 0 0 0 0 0 0 0 0 0 0 0 0 0 0 0 0 0 0 0 0 0 0 0 0 0 0 0 0 0 0 0 0 0 0 0 0 0 0 0 0
0 0 0 0 0 0 0 0 0 0 0 0 0 0 0 0 0 0 0 0 0 0 0 0 0 0 0 0 0 0 0 0 0 0 0 0 0 0 0 0 0 0 0 0
0 0 0 0 0 0 0 0 0 0 0 0 0 0 0 0 0 0 0 0 0 0 0 0 0 0 0 0 0 0 0 0 0 0 0 0 0 0 0 0 0 0 0 0
0 0 0 0 0 0 0 0 0 0 0 0 0 0 0 0 0 0 0 0 0 0 0 0 0 0 0 0 0 0 0 0 0 0 0 0 0 0 0 0 0 0 0 0
0 0 0 0 0 0 0 0 0 0 0 0 0 0 0 0 0 0 0 0 0 0 0 0 0 0 0 0 0 0 0 0 0 0 0 0 0 0 0 0 0 0 0 0
0 0 0 0 0 0 0 0 0 0 0 0 0 0 0 0 0 0 -0 0 0 0 0 0 0 0 0 0 0 0 0 0 0 0 0 0 0 0 0 0 0 0 0 0
0 0 0 0 0 0 0 0 0 0 0 0 0 0 0 0 0 0 -0 0 0 0 0 0 0 0 0 0 0 0 0 0 0 0 0 0 0 0 0 0 0 0 0 0
0 0 0 0 0 0 0 0 0 0 0 0 0 0 0 0 0 0 0 0 0 0 0 0 0 0 0 0 0 0 0 0 0 0 0 0 0 0 0 0 0 0 0 0
0 0 0 0 0 0 0 0 0 0 0 0 0 0 0 0 0 0 0 0 -0 0 0 0 0 0 0 0 0 0 0 0 0 0 0 0 0 0 0 0 0 0 0 0
0 0 0 0 0 0 0 0 0 0 0 0 0 0 0 0 0 0 0 -0 0 0 0 0 0 0 0 0 0 0 0 0 0 0 0 0 0 0 0 0 0 0 0 0
0 0 0 0 0 0 0 0 0 0 0 0 0 0 0 0 0 0 0 0 -0 -0 0 -0 0 0 0 0 0 0 0 0 0 0 0 0 0 0 0 0 0 0 0 0
0 0 0 0 0 0 0 0 0 0 0 0 0 0 0 0 0 -0 0 -0 -0 -0 0 -0 -0 0 0 0 0 0 0 0 0 0 0 0 0 0 0 0 0 0 0 0
0 0 0 0 0 0 0 0 0 0 0 0 0 0 0 0 0 -0 0 0 -0 -0 -0 -0 -0 -0 0 0 0 0 0 0 0 0 0 0 0 0 0 0 0 0 0 0
0 0 0 0 0 0 0 0 0 0 0 0 0 0 0 0 0 0 -0 0 0 -0 -0 0 -0 -0 -0 -0 0 0 0 0 0 0 0 0 0 0 0 0 0 0 0 0
0 0 0 0 0 0 0 0 0 0 0 0 0 0 0 0 0 0 0 0 0 0 -0 -0 -0 -0 -0 -0 -0 0 0 -0 -0 0 0 0 0 0 0 0 0 0 0 0
0 0 0 0 0 0 0 0 0 0 0 0 0 0 0 0 0 0 0 0 -0 0 0 -0 -0 -0 -0 -0 -0 0 0 0 -0 -0 0 0 0 0 0 0 0 0 0 0
0 0 0 0 0 0 0 0 0 0 0 0 0 0 0 0 0 0 0 0 0 0 0 -0 -0 0 0 -0 -0 0 -0 -0 -0 -0 -0 0 0 0 0 0 0 0 0 0
0 0 0 0 0 0 0 0 0 0 0 0 0 0 0 0 0 0 0 0 0 0 0 0 0 -0 0 0 0 0 0 0 -0 -0 0 0 0 0 0 0 0 0 0 0
0 0 0 0 0 0 0 0 0 0 0 0 0 0 0 0 0 0 0 0 0 0 0 0 0 0 0 0 0 0 0 0 0 0 0 0 0 0 0 0 0 0 0 0
0 0 0 0 0 0 0 0 0 0 0 0 0 0 0 0 0 0 0 0 0 0 0 0 0 -0 0 0 0 0 0 0 0 0 0 0 0 0 0 0 0 0 0 0
0 0 0 0 0 0 0 0 0 0 0 0 0 0 0 0 0 0 0 0 0 0 0 0 0 -0 0 0 0 0 0 0 0 0 0 0 0 0 0 0 0 0 0 0
0 0 0 0 0 0 0 0 0 0 0 0 0 0 0 0 0 0 0 0 0 0 0 0 0 0 0 0 0 0 0 0 0 0 0 0 0 0 0 0 0 0 0 0
0 0 0 0 0 0 0 0 0 0 0 0 0 0 0 0 0 0 0 0 0 0 0 0 0 0 0 0 0 0 0 0 0 0 0 0 0 0 0 0 0 0 0 0
Wind_Speed_500mb
2 4 4 4 6 10 8 8 9 11 10 10 21 34 49 56 65 70 73 75 82 83 82 86 82 83 84 80 82 82 84 83 71 72 64 67 73 75 73 75 79 75 53 31
1 5 6 5 8 11 9 5 11 10 13 18 47 42 55 59 65 66 71 69 79 84 77 83 80 78 83 78 83 78 83 81 67 67 65 63 66 75 78 81 82 84 80 78
1 4 3 9 7 4 2 2 8 7 8 24 34 44 50 53 64 65 72 67 81 78 71 77 75 72 77 74 74 75 80 81 67 62 65 64 66 69 76 81 84 87 88 92
5 3 3 3 3 5 4 4 1 5 11 26 35 50 27 51 65 65 70 61 80 66 67 72 68 67 73 67 67 69 75 80 70 61 60 59 58 65 71 75 79 82 86 93
6 4 9 3 7 8 9 8 5 4 18 29 42 40 11 66 66 67 61 57 70 54 59 66 66 67 69 65 62 64 69 76 67 64 62 59 60 61 63 70 74 77 81 79
6 7 8 4 7 10 14 6 6 3 11 22 36 13 19 64 64 61 55 70 57 52 54 64 64 63 65 63 60 61 60 66 62 60 62 62 61 63 66 64 61 65 73 76
3 4 13 6 19 18 8 8 8 2 11 21 11 20 43 55 62 56 46 70 52 48 54 61 61 61 64 61 58 51 50 56 61 54 61 63 62 59 61 69 74 76 70 63
5 6 8 26 16 10 10 12 5 3 11 18 25 35 44 52 58 56 51 56 50 49 52 58 59 60 61 60 50 45 48 51 55 60 58 62 71 66 65 64 61 61 71 75
14 9 3 41 6 15 13 13 7 4 12 18 27 37 45 50 54 52 58 53 46 49 48 55 58 57 58 56 46 43 46 49 51 50 51 63 58 67 75 70 58 59 59 61
5 6 22 26 20 15 13 12 9 6 10 17 26 34 42 48 53 51 51 55 44 48 46 53 57 55 51 52 44 42 44 47 50 49 49 49 59 64 68 71 64 60 57 59
5 5 18 22 22 23 17 14 9 6 9 17 24 32 37 45 48 47 49 51 39 45 43 47 52 52 49 50 44 43 44 46 48 47 48 46 50 56 56 60 60 59 50 53
11 36 14 29 38 29 24 17 11 6 9 15 23 29 34 44 45 42 50 56 36 36 38 41 49 51 47 46 44 43 47 49 47 44 45 43 43 45 50 49 52 56 53 50
10 42 12 38 40 30 25 19 13 4 9 14 21 26 33 43 45 35 48 53 38 33 35 37 43 49 42 45 44 42 44 46 46 44 43 43 42 47 51 52 53 54 53 52
28 48 44 50 36 36 26 20 12 4 7 13 19 23 29 41 45 36 48 48 35 22 28 32 37 45 38 42 41 38 39 41 42 42 41 40 41 45 49 54 55 56 57 58
47 26 27 44 47 39 30 21 13 7 7 11 18 22 28 42 47 36 44 50 36 29 27 29 34 40 38 38 37 36 37 40 39 38 38 39 38 41 47 51 54 53 53 54
47 26 41 46 48 42 32 23 14 9 7 11 15 18 24 35 44 36 41 48 38 37 27 30 29 33 36 34 35 32 34 34 35 36 34 36 38 41 44 49 52 54 56 55
57 53 55 54 50 44 33 23 15 11 8 9 14 18 19 30 43 45 42 45 36 30 25 26 24 28 31 29 30 29 30 32 32 33 33 34 37 40 42 46 51 52 53 53
44 36 50 47 53 47 37 26 18 11 7 9 13 16 17 28 45 49 39 42 36 33 26 23 23 20 24 25 25 22 26 27 28 31 31 30 33 35 38 41 45 48 48 49
46 46 49 47 43 39 34 27 21 13 8 6 8 13 17 22 38 46 40 42 43 41 36 22 21 13 21 21 21 18 19 22 23 25 28 27 27 30 33 35 39 42 43 45
53 53 52 50 44 38 34 26 20 15 9 7 8 12 15 19 34 44 44 43 40 36 32 26 20 15 18 22 19 16 15 18 19 20 22 23 24 26 28 30 32 36 39 42
63 63 58 55 48 39 30 25 19 14 10 7 5 9 14 16 29 43 49 48 42 35 32 24 16 16 9 17 19 14 12 13 15 17 17 20 20 21 22 25 26 29 33 36
70 68 62 55 51 44 35 27 20 14 10 6 4 7 10 10 20 36 45 47 46 36 33 30 29 16 10 9 18 17 12 10 11 13 14 14 16 16 17 18 20 23 26 29
73 68 63 58 53 45 39 31 24 17 11 6 1 6 13 16 21 36 48 50 46 37 32 30 26 16 10 3 10 15 14 9 8 9 11 11 11 13 13 14 15 16 18 21
75 70 63 57 52 49 45 37 28 22 16 11 5 3 7 9 11 22 37 42 43 37 31 29 27 20 11 5 2 10 13 11 6 5 6 8 7 7 9 9 10 10 11 13
74 71 67 66 61 52 43 38 31 24 18 12 6 2 7 9 9 16 33 41 42 41 33 28 26 22 14 7 5 4 11 13 10 6 3 3 4 3 3 4 6 6 7 7
80 77 72 65 57 54 48 41 33 27 20 14 9 2 3 6 7 9 20 36 41 40 38 32 29 28 23 15 6 6 5 8 13 10 8 4 2 1 0 1 0 2 3 3
77 75 71 64 57 53 48 43 38 31 24 18 12 7 2 2 3 4 13 30 39 41 40 38 33 31 30 25 17 10 7 8 9 14 11 9 8 6 5 4 4 4 3 3
Wind_Direction_500mb
103 163 173 238 191 187 169 181 153 275 280 304 325 330 331 342 346 346 349 350 350 351 358 3 358 5 7 10 10 11 11 13 13 18 21 27 30 36 39 43 40 31 22 2
142 232 242 287 259 210 219 182 263 292 305 338 332 339 339 350 346 346 348 350 349 353 358 5 359 4 5 10 11 16 16 14 15 21 23 27 33 36 42 43 43 37 32 27
169 212 344 306 217 184 130 223 220 264 259 325 332 338 332 347 347 346 347 348 348 357 5 4 358 3 5 8 11 21 20 21 19 25 27 33 40 41 42 42 43 45 35 35
164 41 0 218 140 129 143 172 214 313 321 333 329 328 329 355 352 348 349 347 347 358 6 6 357 8 7 10 15 24 23 24 22 27 30 33 42 43 44 42 41 38 42 40
119 182 298 239 193 167 168 231 201 306 327 333 342 338 340 357 -0 351 355 348 350 4 7 7 1 9 7 11 21 25 25 28 27 32 34 36 41 45 46 45 45 43 44 46
71 119 205 186 158 139 126 273 166 308 326 344 350 6 318 351 357 360 358 347 356 11 8 10 5 13 9 15 24 26 27 31 33 38 42 44 46 49 52 50 46 44 46 46
155 208 284 208 147 143 69 249 173 308 354 350 346 330 335 353 357 3 0 352 5 13 16 13 8 13 14 17 26 27 29 35 39 39 48 48 46 46 52 54 49 44 44 45
82 57 314 155 129 171 170 138 148 26 357 350 351 351 356 360 360 2 357 360 11 15 16 17 14 15 14 21 26 29 32 36 39 40 43 50 43 42 40 44 36 35 36 39
175 214 146 172 161 157 156 153 150 41 5 359 357 356 359 357 0 7 354 1 10 18 14 20 16 16 19 22 26 30 33 34 33 33 33 44 43 35 39 40 43 39 38 38
67 188 169 173 160 163 154 144 129 44 17 2 360 357 1 359 2 3 0 4 8 18 16 19 17 18 20 21 30 33 35 34 33 31 32 42 48 46 39 37 44 46 41 43
252 177 168 191 188 172 161 154 121 86 18 4 1 5 5 0 3 360 2 6 8 17 18 17 19 20 24 28 30 37 38 36 37 34 37 42 44 54 45 44 41 43 44 49
216 183 169 192 180 173 168 154 130 97 25 6 4 9 5 4 2 360 0 4 8 20 20 16 20 21 28 36 35 37 40 38 37 38 41 47 52 54 62 61 50 50 48 47
161 166 149 154 162 169 164 150 137 98 21 10 13 13 11 5 4 0 3 3 7 16 21 20 20 19 35 40 41 39 41 43 41 44 45 51 56 59 59 59 54 56 54 49
159 154 137 158 166 167 162 154 147 93 30 18 20 15 15 8 7 10 2 2 5 21 29 25 21 20 29 44 41 43 45 47 44 45 49 55 59 60 60 60 56 53 55 58
167 180 178 162 159 162 164 158 156 142 63 33 28 16 12 11 9 12 360 4 12 15 26 31 20 18 23 40 43 41 44 49 49 48 52 58 65 64 63 62 63 60 59 56
172 174 162 163 161 165 165 161 166 135 78 39 30 24 17 10 9 17 3 8 12 16 20 25 21 14 15 40 43 45 45 51 52 56 58 63 68 68 64 64 62 60 59 57
162 160 165 165 169 169 166 162 162 135 92 48 27 20 11 9 9 15 4 9 17 24 21 20 23 14 9 40 40 46 49 52 55 60 60 63 65 66 64 62 63 60 60 59
192 182 179 175 168 168 168 165 158 142 107 58 30 11 3 11 11 7 12 6 18 28 32 31 24 11 10 35 40 45 51 53 56 61 63 65 65 66 65 65 64 64 63 64
181 175 172 172 170 169 167 165 157 151 125 75 31 17 13 13 9 7 17 10 14 21 23 28 20 359 26 27 45 44 55 55 56 62 65 64 68 68 68 67 68 65 64 63
174 175 172 170 172 174 170 168 160 152 139 97 31 15 13 16 14 8 16 19 10 14 12 19 14 22 30 19 25 41 52 61 59 61 67 69 69 71 71 70 70 69 66 64
177 176 175 174 173 174 177 171 166 158 144 117 53 18 18 21 13 8 12 20 16 15 11 13 25 33 54 1 10 25 49 61 68 67 66 71 70 72 74 75 74 72 71 67
179 178 177 176 177 176 176 175 171 169 150 130 56 8 14 33 22 19 13 13 13 14 11 16 27 32 20 14 0 7 24 52 65 68 69 70 75 73 75 76 79 79 77 74
180 180 178 180 181 178 176 178 175 174 166 156 114 3 4 17 17 15 17 13 13 13 12 17 21 20 23 41 339 4 4 20 55 72 74 76 71 78 75 79 76 79 82 82
180 181 182 180 180 182 182 180 180 178 170 170 166 57 26 12 8 13 16 13 12 16 14 15 16 13 17 1 35 340 358 354 358 43 76 76 68 69 79 77 80 83 86 89
183 182 182 182 185 185 183 183 183 183 176 171 162 35 25 14 10 20 17 12 14 18 20 19 18 18 15 9 335 321 339 341 334 327 351 97 81 62 53 82 86 87 96 99
185 185 186 188 187 184 185 187 189 186 181 178 174 181 13 358 7 11 18 17 17 20 21 20 19 22 20 15 7 331 303 328 321 313 298 285 201 150 179 285 315 121 120 123
187 188 186 185 186 188 190 190 190 189 185 186 187 190 196 316 357 19 16 21 21 23 22 20 20 19 21 19 10 359 328 308 305 302 294 279 265 232 218 232 251 253 213 196
Wind_Speed_850mb
2 4 4 4 6 10 8 8 9 11 10 10 21 34 49 56 65 70 73 75 82 83 82 86 82 83 84 80 82 82 84 83 71 72 64 67 73 75 73 75 79 75 53 31
1 5 6 5 8 11 9 5 11 10 13 18 47 42 55 59 65 66 71 69 79 84 77 83 80 78 83 78 83 78 83 81 67 67 65 63 66 75 78 81 82 84 80 78
1 4 3 9 7 4 2 2 8 7 8 24 34 44 50 53 64 65 72 67 81 78 71 77 75 72 77 74 74 75 80 81 67 62 65 64 66 69 76 81 84 87 88 92
5 3 3 3 3 5 4 4 1 5 11 26 35 50 27 51 65 65 70 61 80 66 67 72 68 67 73 67 67 69 75 80 70 61 60 59 58 65 71 75 79 82 86 93
6 4 9 3 7 8 9 8 5 4 18 29 42 40 11 66 66 67 61 57 70 54 59 66 66 67 69 65 62 64 69 76 67 64 62 59 60 61 63 70 74 77 81 79
6 7 8 4 7 10 14 6 6 3 11 22 36 13 19 64 64 61 55 70 57 52 54 64 64 63 65 63 60 61 60 66 62 60 62 62 61 63 66 64 61 65 73 76
3 4 13 6 19 18 8 8 8 2 11 21 11 20 43 55 62 56 46 70 52 48 54 61 61 61 64 61 58 51 50 56 61 54 61 63 62 59 61 69 74 76 70 63
5 6 8 26 16 10 10 12 5 3 11 18 25 35 44 52 58 56 51 56 50 49 52 58 59 60 61 60 50 45 48 51 55 60 58 62 71 66 65 64 61 61 71 75
14 9 3 41 6 15 13 13 7 4 12 18 27 37 45 50 54 52 58 53 46 49 48 55 58 57 58 56 46 43 46 49 51 50 51 63 58 67 75 70 58 59 59 61
5 6 22 26 20 15 13 12 9 6 10 17 26 34 42 48 53 51 51 55 44 48 46 53 57 55 51 52 44 42 44 47 50 49 49 49 59 64 68 71 64 60 57 59
5 5 18 22 22 23 17 14 9 6 9 17 24 32 37 45 48 47 49 51 39 45 43 47 52 52 49 50 44 43 44 46 48 47 48 46 50 56 56 60 60 59 50 53
11 36 14 29 38 29 24 17 11 6 9 15 23 29 34 44 45 42 50 56 36 36 38 41 49 51 47 46 44 43 47 49 47 44 45 43 43 45 50 49 52 56 53 50
10 42 12 38 40 30 25 19 13 4 9 14 21 26 33 43 45 35 48 53 38 33 35 37 43 49 42 45 44 42 44 46 46 44 43 43 42 47 51 52 53 54 53 52
28 48 44 50 36 36 26 20 12 4 7 13 19 23 29 41 45 36 48 48 35 22 28 32 37 45 38 42 41 38 39 41 42 42 41 40 41 45 49 54 55 56 57 58
47 26 27 44 47 39 30 21 13 7 7 11 18 22 28 42 47 36 44 50 36 29 27 29 34 40 38 38 37 36 37 40 39 38 38 39 38 41 47 51 54 53 53 54
47 26 41 46 48 42 32 23 14 9 7 11 15 18 24 35 44 36 41 48 38 37 27 30 29 33 36 34 35 32 34 34 35 36 34 36 38 41 44 49 52 54 56 55
57 53 55 54 50 44 33 23 15 11 8 9 14 18 19 30 43 45 42 45 36 30 25 26 24 28 31 29 30 29 30 32 32 33 33 34 37 40 42 46 51 52 53 53
44 36 50 47 53 47 37 26 18 11 7 9 13 16 17 28 45 49 39 42 36 33 26 23 23 20 24 25 25 22 26 27 28 31 31 30 33 35 38 41 45 48 48 49
46 46 49 47 43 39 34 27 21 13 8 6 8 13 17 22 38 46 40 42 43 41 36 22 21 13 21 21 21 18 19 22 23 25 28 27 27 30 33 35 39 42 43 45
53 53 52 50 44 38 34 26 20 15 9 7 8 12 15 19 34 44 44 43 40 36 32 26 20 15 18 22 19 16 15 18 19 20 22 23 24 26 28 30 32 36 39 42
63 63 58 55 48 39 30 25 19 14 10 7 5 9 14 16 29 43 49 48 42 35 32 24 16 16 9 17 19 14 12 13 15 17 17 20 20 21 22 25 26 29 33 36
70 68 62 55 51 44 35 27 20 14 10 6 4 7 10 10 20 36 45 47 46 36 33 30 29 16 10 9 18 17 12 10 11 13 14 14 16 16 17 18 20 23 26 29
73 68 63 58 53 45 39 31 24 17 11 6 1 6 13 16 21 36 48 50 46 37 32 30 26 16 10 3 10 15 14 9 8 9 11 11 11 13 13 14 15 16 18 21
75 70 63 57 52 49 45 37 28 22 16 11 5 3 7 9 11 22 37 42 43 37 31 29 27 20 11 5 2 10 13 11 6 5 6 8 7 7 9 9 10 10 11 13
74 71 67 66 61 52 43 38 31 24 18 12 6 2 7 9 9 16 33 41 42 41 33 28 26 22 14 7 5 4 11 13 10 6 3 3 4 3 3 4 6 6 7 7
80 77 72 65 57 54 48 41 33 27 20 14 9 2 3 6 7 9 20 36 41 40 38 32 29 28 23 15 6 6 5 8 13 10 8 4 2 1 0 1 0 2 3 3
77 75 71 64 57 53 48 43 38 31 24 18 12 7 2 2 3 4 13 30 39 41 40 38 33 31 30 25 17 10 7 8 9 14 11 9 8 6 5 4 4 4 3 3
Wind_Direction_850mb
103 163 173 238 191 187 169 181 153 275 280 304 325 330 331 342 346 346 349 350 350 351 358 3 358 5 7 10 10 11 11 13 13 18 21 27 30 36 39 43 40 31 22 2
142 232 242 287 259 210 219 182 263 292 305 338 332 339 339 350 346 346 348 350 349 353 358 5 359 4 5 10 11 16 16 14 15 21 23 27 33 36 42 43 43 37 32 27
169 212 344 306 217 184 130 223 220 264 259 325 332 338 332 347 347 346 347 348 348 357 5 4 358 3 5 8 11 21 20 21 19 25 27 33 40 41 42 42 43 45 35 35
164 41 0 218 140 129 143 172 214 313 321 333 329 328 329 355 352 348 349 347 347 358 6 6 357 8 7 10 15 24 23 24 22 27 30 33 42 43 44 42 41 38 42 40
119 182 298 239 193 167 168 231 201 306 327 333 342 338 340 357 -0 351 355 348 350 4 7 7 1 9 7 11 21 25 25 28 27 32 34 36 41 45 46 45 45 43 44 46
71 119 205 186 158 139 126 273 166 308 326 344 350 6 318 351 357 360 358 347 356 11 8 10 5 13 9 15 24 26 27 31 33 38 42 44 46 49 52 50 46 44 46 46
155 208 284 208 147 143 69 249 173 308 354 350 346 330 335 353 357 3 0 352 5 13 16 13 8 13 14 17 26 27 29 35 39 39 48 48 46 46 52 54 49 44 44 45
82 57 314 155 129 171 170 138 148 26 357 350 351 351 356 360 360 2 357 360 11 15 16 17 14 15 14 21 26 29 32 36 39 40 43 50 43 42 40 44 36 35 36 39
175 214 146 172 161 157 156 153 150 41 5 359 357 356 359 357 0 7 354 1 10 18 14 20 16 16 19 22 26 30 33 34 33 33 33 44 43 35 39 40 43 39 38 38
67 188 169 173 160 163 154 144 129 44 17 2 360 357 1 359 2 3 0 4 8 18 16 19 17 18 20 21 30 33 35 34 33 31 32 42 48 46 39 37 44 46 41 43
252 177 168 191 188 172 161 154 121 86 18 4 1 5 5 0 3 360 2 6 8 17 18 17 19 20 24 28 30 37 38 36 37 34 37 42 44 54 45 44 41 43 44 49
216 183 169 192 180 173 168 154 130 97 25 6 4 9 5 4 2 360 0 4 8 20 20 16 20 21 28 36 35 37 40 38 37 38 41 47 52 54 62 61 50 50 48 47
161 166 149 154 162 169 164 150 137 98 21 10 13 13 11 5 4 0 3 3 7 16 21 20 20 19 35 40 41 39 41 43 41 44 45 51 56 59 59 59 54 56 54 49
159 154 137 158 166 167 162 154 147 93 30 18 20 15 15 8 7 10 2 2 5 21 29 25 21 20 29 44 41 43 45 47 44 45 49 55 59 60 60 60 56 53 55 58
167 180 178 162 159 162 164 158 156 142 63 33 28 16 12 11 9 12 360 4 12 15 26 31 20 18 23 40 43 41 44 49 49 48 52 58 65 64 63 62 63 60 59 56
172 174 162 163 161 165 165 161 166 135 78 39 30 24 17 10 9 17 3 8 12 16 20 25 21 14 15 40 43 45 45 51 52 56 58 63 68 68 64 64 62 60 59 57
162 160 165 165 169 169 166 162 162 135 92 48 27 20 11 9 9 15 4 9 17 24 21 20 23 14 9 40 40 46 49 52 55 60 60 63 65 66 64 62 63 60 60 59
192 182 179 175 168 168 168 165 158 142 107 58 30 11 3 11 11 7 12 6 18 28 32 31 24 11 10 35 40 45 51 53 56 61 63 65 65 66 65 65 64 64 63 64
181 175 172 172 170 169 167 165 157 151 125 75 31 17 13 13 9 7 17 10 14 21 23 28 20 359 26 27 45 44 55 55 56 62 65 64 68 68 68 67 68 65 64 63
174 175 172 170 172 174 170 168 160 152 139 97 31 15 13 16 14 8 16 19 10 14 12 19 14 22 30 19 25 41 52 61 59 61 67 69 69 71 71 70 70 69 66 64
177 176 175 174 173 174 177 171 166 158 144 117 53 18 18 21 13 8 12 20 16 15 11 13 25 33 54 1 10 25 49 61 68 67 66 71 70 72 74 75 74 72 71 67
179 178 177 176 177 176 176 175 171 169 150 130 56 8 14 33 22 19 13 13 13 14 11 16 27 32 20 14 0 7 24 52 65 68 69 70 75 73 75 76 79 79 77 74
180 180 178 180 181 178 176 178 175 174 166 156 114 3 4 17 17 15 17 13 13 13 12 17 21 20 23 41 339 4 4 20 55 72 74 76 71 78 75 79 76 79 82 82
180 181 182 180 180 182 182 180 180 178 170 170 166 57 26 12 8 13 16 13 12 16 14 15 16 13 17 1 35 340 358 354 358 43 76 76 68 69 79 77 80 83 86 89
183 182 182 182 185 185 183 183 183 183 176 171 162 35 25 14 10 20 17 12 14 18 20 19 18 18 15 9 335 321 339 341 334 327 351 97 81 62 53 82 86 87 96 99
185 185 186 188 187 184 185 187 189 186 181 178 174 181 13 358 7 11 18 17 17 20 21 20 19 22 20 15 7 331 303 328 321 313 298 285 201 150 179 285 315 121 120 123
187 188 186 185 186 188 190 190 190 189 185 186 187 190 196 316 357 19 16 21 21 23 22 20 20 19 21 19 10 359 328 308 305 302 294 279 265 232 218 232 251 253 213 196